Regional Weather Roundup
Issued by NWS

Home | Current Version | Previous Version | Text Only | Print | Product List | Glossary Off
Versions: 1 2 3 4 5 6 7 8 9 10 11 12 13 14 15 16 17 18 19 20 21 22 23 24 25 26 27 28

000
ASUS45 KBOU 201810
RWRCO

WEATHER ROUNDUP FOR COLORADO
NATIONAL WEATHER SERVICE DENVER/BOULDER CO
1100 AM MST SAT JAN 20 2018

NOTE: "FAIR" INDICATES FEW OR NO CLOUDS BELOW 12000 FEET WITH NO
SIGNIFICANT WEATHER AND/OR OBSTRUCTIONS TO VISIBILITY.

COZ001>005-013-030-031-201900-
...NORTHWEST COLORADO...

CITY           SKY/WX    TMP DP  RH WIND       PRES   REMARKS
CRAIG          LGT SNOW  32  29  88 CALM      29.79F FOG
HAYDEN         PTSUNNY  N/A N/A N/A S8        29.79F
MEEKER         PTSUNNY   40  33  76 W9        29.77F
RABBIT EARS PA CLOUDY    30  27  86 S17G45    29.83F WCI  18
STEAMBOAT SPGS CLOUDY    36  26  67 W3        29.78F
WALDEN         CLOUDY    43  25  49 S18G29    29.80S
$$

COZ006>008-011-201900-
...WEST CENTRAL VALLEYS...

CITY           SKY/WX    TMP DP  RH WIND       PRES   REMARKS
GRAND JUNCTION CLOUDY    44  33  65 NW18      29.76R
MONTROSE       PTSUNNY   55  23  28 S20G32    29.80F
EAGLE          CLOUDY    40  24  53 N5        29.81F
RIFLE          CLOUDY    35  32  88 CALM      29.78F
DELTA          CLOUDY    54  25  32 W6        29.79F
NUCLA          PTSUNNY   54  21  28 S26G33    29.82F
$$

COZ017>023-064>068-201900-
...SOUTHWEST COLORADO...

CITY           SKY/WX    TMP DP  RH WIND       PRES   REMARKS
DURANGO        CLOUDY    36  20  52 E10       29.95F
CORTEZ         CLOUDY    47  17  30 SE21G31   29.86F
PAGOSA SPRINGS CLOUDY    40  17  38 E3        29.99F
TELLURIDE      CLOUDY    35  23  62 S9        29.94F WCI  28
WOLF CREEK PAS LGT SNOW  21  12  68 S13G21    30.09S WCI   9
$$

COZ009-010-012-014-032>034-037-058>063-201900-
...CENTRAL COLORADO...

CITY           SKY/WX    TMP DP  RH WIND       PRES   REMARKS
ASPEN          PTSUNNY   47  20  34 S14       29.79F
BUENA VISTA    PTSUNNY   44  16  32 SE8       29.88F
COPPER MTN     NOT AVBL
BERTHOUD PASS  FAIR      28  16  59 SW16G41   29.93S WCI  17
COTTONWOOD PAS   N/A     39  19  45 SE6       29.92S
GUNNISON       PTSUNNY   22  16  78 SE6       29.91F WCI  14
KREMMLING      FAIR      41  21  45 CALM      29.81F
LEADVILLE      FAIR      34  17  50 S18       29.87F WCI  23
MONARCH PASS   FAIR      30  19  64 SW30G39   30.06F WCI  15
SALIDA         CLOUDY    48  17  29 S23G29    29.95F
SUNLIGHT       CLOUDY    28  21  74 SW15G32   29.89F WCI  17
WILKERSON PASS FAIR      32  14  47 SW13G24   29.95F WCI  22
$$

COZ069>075-201900-
...SAN LUIS VALLEY/SANGRE DE CRISTO MOUNTAINS...

CITY           SKY/WX    TMP DP  RH WIND       PRES   REMARKS
ALAMOSA        FAIR      51  17  26 SW18G29   29.91F
DEL NORTE      FAIR      38  16  41 NE5       29.93F
LA VETA PASS   FAIR      37  12  35 S31G48      N/A
SAGUACHE       FAIR      37  16  41 SE5       29.94F
$$

COZ035-036-038>040-201900-
...NORTHERN COLORADO FRONT RANGE...

CITY           SKY/WX    TMP DP  RH WIND       PRES   REMARKS
DENVER INTL AP PTSUNNY   42  21  43 NE12      29.78F
DMNS CITY PARK NOT AVBL
AURORA         PTSUNNY   47  22  36 NE10      29.78R
FRONT RANGE AP PTSUNNY   45  23  42 N12       29.78F
ERIE MUNI ARPT FAIR      42  22  45 N10       29.87R
BOULDER MUN AP FAIR      45  21  39 N6        29.82S
CENTENNIAL     PTSUNNY   56  19  23 SW20G28   29.75F
BROOMFIELD     PTSUNNY   45  19  36 N14       29.81R
FORT COLLINS   FAIR      42  22  44 E3        29.81F
LONGMONT       FAIR      49  22  35 E5        29.83S
$$

COZ041-046-047-076>085-087-088-201900-
...PIKES PEAK/PALMER DIVIDE AND SOUTHERN FOOTHILLS...

CITY           SKY/WX    TMP DP  RH WIND       PRES   REMARKS
COLO. SPRINGS  PTSUNNY   59  20  22 SW16      29.79F
A. F. ACADEMY  FAIR      56  18  22 SE7       29.79F
SCHRIEVER AFB  FAIR      58  16  19 W15       29.80F
CHEYENNE MTN   FAIR      53  17  24 SE7G20    29.73F
ELLICOTT         N/A    N/A N/A N/A W12       29.78F
FALCON         FAIR      55  15  20 SW17G26   29.82F
FORT CARSON    FAIR      59  18  20 SW10      29.77F
LIMON          FAIR      60  16  18 CALM      29.77F
MONUMENT HILL  FAIR      50  19  29 W21       29.82F
CANON CITY     FAIR      52  21  30 E3        29.79F
WALSENBURG     FAIR      61  18  18 W28G35    29.82F
TRINIDAD       FAIR      65  21  18 SW12      29.81F
$$

COZ042>045-048>051-090-091-201900-
...NORTHEAST COLORADO...

CITY           SKY/WX    TMP DP  RH WIND       PRES   REMARKS
GREELEY ARPT   FAIR      41  28  60 NE16      29.82R
AKRON          FAIR      42  29  59 NE12      29.79S
BURLINGTON     FAIR      47  29  49 N8        29.77F
WRAY           FAIR      45  32  61 N12       29.81S
YUMA           FAIR      43  28  56 N12       29.79F
STERLING       FAIR      43  32  65 NE10      29.81F
HOLYOKE        FAIR      45  32  61 E10       29.83F
FORT MORGAN    FAIR      46  23  41 NE16      29.80F
$$

COZ086-089-092>099-201900-
...SOUTHEAST COLORADO...

CITY           SKY/WX    TMP DP  RH WIND       PRES   REMARKS
PUEBLO         FAIR      60  20  21 CALM      29.76F
LA JUNTA       FAIR      65  24  21 VRB7      29.74F
LAMAR          FAIR      64  22  20 W13       29.71F
SPRINGFIELD      N/A     73  20  13 W12G18    29.74F
$$




USA.gov is the U.S. government's official web portal to all federal, state and local government web resources and services.